owner,sensor,date,latitude,longitude,vertical_datum,sea_water_temperature,qcFlag 
TABS,ioos:station:TABS:E:1,1995-11-09T18:30:00Z,27.3383,-97.1000,-2.0,21.23,11111222 
TABS,ioos:station:TABS:E:1,1995-11-09T19:00:00Z,27.3383,-97.1000,-2.0,21.23,11111222 
TABS,ioos:station:TABS:E:1,1995-11-09T19:30:00Z,27.3383,-97.1000,-2.0,21.28,11111222 
TABS,ioos:station:TABS:E:1,1995-11-09T20:00:00Z,27.3383,-97.1000,-2.0,21.3,11111222 
TABS,ioos:station:TABS:E:1,1995-11-09T20:30:00Z,27.3383,-97.1000,-2.0,21.3,11111222 
TABS,ioos:station:TABS:E:1,1995-11-09T21:00:00Z,27.3383,-97.1000,-2.0,21.32,11111222 
TABS,ioos:station:TABS:E:1,1995-11-09T21:30:00Z,27.3383,-97.1000,-2.0,21.33,11111222 
TABS,ioos:station:TABS:E:1,1995-11-09T22:00:00Z,27.3383,-97.1000,-2.0,21.32,11111222 
TABS,ioos:station:TABS:E:1,1995-11-09T22:30:00Z,27.3383,-97.1000,-2.0,21.32,11111222 
TABS,ioos:station:TABS:E:1,1995-11-09T23:00:00Z,27.3383,-97.1000,-2.0,21.28,11111222 
TABS,ioos:station:TABS:E:1,1995-11-09T23:30:00Z,27.3383,-97.1000,-2.0,21.07,11111222 
TABS,ioos:station:TABS:E:1,1995-11-10T00:00:00Z,27.3383,-97.1000,-2.0,21.06,11111222 
TABS,ioos:station:TABS:E:1,1995-11-10T00:30:00Z,27.3383,-97.1000,-2.0,21.05,11111222 
TABS,ioos:station:TABS:E:1,1995-11-10T01:00:00Z,27.3383,-97.1000,-2.0,21.02,11111222 
TABS,ioos:station:TABS:E:1,1995-11-10T01:30:00Z,27.3383,-97.1000,-2.0,21.0,11111222 
TABS,ioos:station:TABS:E:1,1995-11-10T02:00:00Z,27.3383,-97.1000,-2.0,20.99,11111222 
TABS,ioos:station:TABS:E:1,1995-11-10T02:30:00Z,27.3383,-97.1000,-2.0,20.98,11111222 
TABS,ioos:station:TABS:E:1,1995-11-10T03:00:00Z,27.3383,-97.1000,-2.0,21.01,11111222 
TABS,ioos:station:TABS:E:1,1995-11-10T03:30:00Z,27.3383,-97.1000,-2.0,21.04,11111222 
TABS,ioos:station:TABS:E:1,1995-11-10T04:00:00Z,27.3383,-97.1000,-2.0,21.02,11111222 
TABS,ioos:station:TABS:E:1,1995-11-10T04:30:00Z,27.3383,-97.1000,-2.0,21.01,11111222 
TABS,ioos:station:TABS:E:1,1995-11-10T05:00:00Z,27.3383,-97.1000,-2.0,21.02,11111222 
TABS,ioos:station:TABS:E:1,1995-11-10T05:30:00Z,27.3383,-97.1000,-2.0,21.04,11111222 
TABS,ioos:station:TABS:E:1,1995-11-10T06:00:00Z,27.3383,-97.1000,-2.0,21.04,11111222 
TABS,ioos:station:TABS:E:1,1995-11-10T06:30:00Z,27.3383,-97.1000,-2.0,21.04,11111222 
TABS,ioos:station:TABS:E:1,1995-11-10T07:00:00Z,27.3383,-97.1000,-2.0,21.11,11111222 
TABS,ioos:station:TABS:E:1,1995-11-10T07:30:00Z,27.3383,-97.1000,-2.0,21.12,11111222 
TABS,ioos:station:TABS:E:1,1995-11-10T08:00:00Z,27.3383,-97.1000,-2.0,21.19,11111222 
TABS,ioos:station:TABS:E:1,1995-11-10T08:30:00Z,27.3383,-97.1000,-2.0,21.15,11111222 
TABS,ioos:station:TABS:E:1,1995-11-10T09:00:00Z,27.3383,-97.1000,-2.0,21.1,11111222 
TABS,ioos:station:TABS:E:1,1995-11-10T09:30:00Z,27.3383,-97.1000,-2.0,21.1,11111222 
TABS,ioos:station:TABS:E:1,1995-11-10T10:00:00Z,27.3383,-97.1000,-2.0,21.12,11111222 
TABS,ioos:station:TABS:E:1,1995-11-10T10:30:00Z,27.3383,-97.1000,-2.0,21.09,11111222 
TABS,ioos:station:TABS:E:1,1995-11-10T11:00:00Z,27.3383,-97.1000,-2.0,21.01,11111222 
TABS,ioos:station:TABS:E:1,1995-11-10T11:30:00Z,27.3383,-97.1000,-2.0,20.95,11111222 
TABS,ioos:station:TABS:E:1,1995-11-10T12:00:00Z,27.3383,-97.1000,-2.0,20.9,11111222 
TABS,ioos:station:TABS:E:1,1995-11-10T12:30:00Z,27.3383,-97.1000,-2.0,20.93,11111222 
TABS,ioos:station:TABS:E:1,1995-11-10T13:00:00Z,27.3383,-97.1000,-2.0,20.97,11111222 
TABS,ioos:station:TABS:E:1,1995-11-10T13:30:00Z,27.3383,-97.1000,-2.0,20.83,11111222 
TABS,ioos:station:TABS:E:1,1995-11-10T14:00:00Z,27.3383,-97.1000,-2.0,20.8,11111222 
TABS,ioos:station:TABS:E:1,1995-11-10T14:30:00Z,27.3383,-97.1000,-2.0,20.77,11111222 
TABS,ioos:station:TABS:E:1,1995-11-10T15:00:00Z,27.3383,-97.1000,-2.0,20.73,11111222 
TABS,ioos:station:TABS:E:1,1995-11-10T15:30:00Z,27.3383,-97.1000,-2.0,20.67,11111222 
TABS,ioos:station:TABS:E:1,1995-11-10T16:00:00Z,27.3383,-97.1000,-2.0,20.64,11111222 
TABS,ioos:station:TABS:E:1,1995-11-10T16:30:00Z,27.3383,-97.1000,-2.0,20.62,11111222 
TABS,ioos:station:TABS:E:1,1995-11-10T17:00:00Z,27.3383,-97.1000,-2.0,20.66,11111222 
TABS,ioos:station:TABS:E:1,1995-11-10T17:30:00Z,27.3383,-97.1000,-2.0,20.8,11111222 
TABS,ioos:station:TABS:E:1,1995-11-10T18:00:00Z,27.3383,-97.1000,-2.0,20.91,11111222 
TABS,ioos:station:TABS:E:1,1995-11-10T18:30:00Z,27.3383,-97.1000,-2.0,21.02,11111222 
TABS,ioos:station:TABS:E:1,1995-11-10T19:00:00Z,27.3383,-97.1000,-2.0,21.08,11111222 
TABS,ioos:station:TABS:E:1,1995-11-10T19:30:00Z,27.3383,-97.1000,-2.0,21.08,11111222 
TABS,ioos:station:TABS:E:1,1995-11-10T20:00:00Z,27.3383,-97.1000,-2.0,21.02,11111222 
TABS,ioos:station:TABS:E:1,1995-11-10T20:30:00Z,27.3383,-97.1000,-2.0,21.08,11111222 
TABS,ioos:station:TABS:E:1,1995-11-10T21:00:00Z,27.3383,-97.1000,-2.0,21.18,11111222 
TABS,ioos:station:TABS:E:1,1995-11-10T21:30:00Z,27.3383,-97.1000,-2.0,21.17,11111222 
TABS,ioos:station:TABS:E:1,1995-11-10T22:00:00Z,27.3383,-97.1000,-2.0,21.16,11111222 
TABS,ioos:station:TABS:E:1,1995-11-10T22:30:00Z,27.3383,-97.1000,-2.0,21.08,11111222 
TABS,ioos:station:TABS:E:1,1995-11-10T23:00:00Z,27.3383,-97.1000,-2.0,21.03,11111222 
TABS,ioos:station:TABS:E:1,1995-11-10T23:30:00Z,27.3383,-97.1000,-2.0,21.04,11111222 
TABS,ioos:station:TABS:E:1,1995-11-11T00:00:00Z,27.3383,-97.1000,-2.0,21.03,11111222 
TABS,ioos:station:TABS:E:1,1995-11-11T00:30:00Z,27.3383,-97.1000,-2.0,21.02,11111222 
TABS,ioos:station:TABS:E:1,1995-11-11T01:00:00Z,27.3383,-97.1000,-2.0,21.01,11111222 
TABS,ioos:station:TABS:E:1,1995-11-11T01:30:00Z,27.3383,-97.1000,-2.0,20.99,11111222 
TABS,ioos:station:TABS:E:1,1995-11-11T02:00:00Z,27.3383,-97.1000,-2.0,20.97,11111222 
TABS,ioos:station:TABS:E:1,1995-11-11T02:30:00Z,27.3383,-97.1000,-2.0,20.96,11111222 
TABS,ioos:station:TABS:E:1,1995-11-11T03:00:00Z,27.3383,-97.1000,-2.0,20.95,11111222 
TABS,ioos:station:TABS:E:1,1995-11-11T03:30:00Z,27.3383,-97.1000,-2.0,20.93,11111222 
TABS,ioos:station:TABS:E:1,1995-11-11T04:00:00Z,27.3383,-97.1000,-2.0,20.92,11111222 
TABS,ioos:station:TABS:E:1,1995-11-11T04:30:00Z,27.3383,-97.1000,-2.0,20.89,11111222 
TABS,ioos:station:TABS:E:1,1995-11-11T05:00:00Z,27.3383,-97.1000,-2.0,20.89,11111222 
TABS,ioos:station:TABS:E:1,1995-11-11T05:30:00Z,27.3383,-97.1000,-2.0,20.87,11111222 
TABS,ioos:station:TABS:E:1,1995-11-11T06:00:00Z,27.3383,-97.1000,-2.0,20.9,11111222 
TABS,ioos:station:TABS:E:1,1995-11-11T06:30:00Z,27.3383,-97.1000,-2.0,20.9,11111222 
TABS,ioos:station:TABS:E:1,1995-11-11T07:00:00Z,27.3383,-97.1000,-2.0,20.91,11111222 
TABS,ioos:station:TABS:E:1,1995-11-11T07:30:00Z,27.3383,-97.1000,-2.0,20.89,11111222 
TABS,ioos:station:TABS:E:1,1995-11-11T08:00:00Z,27.3383,-97.1000,-2.0,20.86,11111222 
TABS,ioos:station:TABS:E:1,1995-11-11T08:30:00Z,27.3383,-97.1000,-2.0,20.83,11111222 
TABS,ioos:station:TABS:E:1,1995-11-11T09:00:00Z,27.3383,-97.1000,-2.0,20.81,11111222 
TABS,ioos:station:TABS:E:1,1995-11-11T09:30:00Z,27.3383,-97.1000,-2.0,20.78,11111222 
TABS,ioos:station:TABS:E:1,1995-11-11T10:00:00Z,27.3383,-97.1000,-2.0,20.73,11111222 
TABS,ioos:station:TABS:E:1,1995-11-11T10:30:00Z,27.3383,-97.1000,-2.0,20.67,11111222 
TABS,ioos:station:TABS:E:1,1995-11-11T11:00:00Z,27.3383,-97.1000,-2.0,20.61,11111222 
TABS,ioos:station:TABS:E:1,1995-11-11T11:30:00Z,27.3383,-97.1000,-2.0,20.58,11111222 
TABS,ioos:station:TABS:E:1,1995-11-11T12:00:00Z,27.3383,-97.1000,-2.0,20.67,11111222 
TABS,ioos:station:TABS:E:1,1995-11-11T12:30:00Z,27.3383,-97.1000,-2.0,20.84,11111222 
TABS,ioos:station:TABS:E:1,1995-11-11T13:00:00Z,27.3383,-97.1000,-2.0,20.96,11111222 
TABS,ioos:station:TABS:E:1,1995-11-11T13:30:00Z,27.3383,-97.1000,-2.0,21.09,11111222 
TABS,ioos:station:TABS:E:1,1995-11-11T14:00:00Z,27.3383,-97.1000,-2.0,21.17,11111222 
TABS,ioos:station:TABS:E:1,1995-11-11T14:30:00Z,27.3383,-97.1000,-2.0,21.15,11111222 
TABS,ioos:station:TABS:E:1,1995-11-11T15:00:00Z,27.3383,-97.1000,-2.0,21.19,11111222 
TABS,ioos:station:TABS:E:1,1995-11-11T15:30:00Z,27.3383,-97.1000,-2.0,21.33,11111222 
TABS,ioos:station:TABS:E:1,1995-11-11T16:00:00Z,27.3383,-97.1000,-2.0,21.32,11111222 
TABS,ioos:station:TABS:E:1,1995-11-11T16:30:00Z,27.3383,-97.1000,-2.0,21.37,11111222 
TABS,ioos:station:TABS:E:1,1995-11-11T17:00:00Z,27.3383,-97.1000,-2.0,21.38,11111222 
TABS,ioos:station:TABS:E:1,1995-11-11T17:30:00Z,27.3383,-97.1000,-2.0,21.42,11111222 
TABS,ioos:station:TABS:E:1,1995-11-11T18:00:00Z,27.3383,-97.1000,-2.0,21.47,11111222 
TABS,ioos:station:TABS:E:1,1995-11-11T18:30:00Z,27.3383,-97.1000,-2.0,21.46,11111222 
TABS,ioos:station:TABS:E:1,1995-11-11T19:00:00Z,27.3383,-97.1000,-2.0,21.47,11111222 
TABS,ioos:station:TABS:E:1,1995-11-11T19:30:00Z,27.3383,-97.1000,-2.0,21.46,11111222 
TABS,ioos:station:TABS:E:1,1995-11-11T20:00:00Z,27.3383,-97.1000,-2.0,21.47,11111222 
TABS,ioos:station:TABS:E:1,1995-11-11T20:30:00Z,27.3383,-97.1000,-2.0,21.49,11111222 
TABS,ioos:station:TABS:E:1,1995-11-11T21:00:00Z,27.3383,-97.1000,-2.0,21.52,11111222 
TABS,ioos:station:TABS:E:1,1995-11-11T21:30:00Z,27.3383,-97.1000,-2.0,21.55,11111222 
TABS,ioos:station:TABS:E:1,1995-11-11T22:00:00Z,27.3383,-97.1000,-2.0,21.52,11111222 
TABS,ioos:station:TABS:E:1,1995-11-11T22:30:00Z,27.3383,-97.1000,-2.0,21.52,11111222 
TABS,ioos:station:TABS:E:1,1995-11-11T23:00:00Z,27.3383,-97.1000,-2.0,21.53,11111222 
TABS,ioos:station:TABS:E:1,1995-11-11T23:30:00Z,27.3383,-97.1000,-2.0,21.55,11111222 
TABS,ioos:station:TABS:E:1,1995-11-12T00:00:00Z,27.3383,-97.1000,-2.0,21.44,11111222 
TABS,ioos:station:TABS:E:1,1995-11-12T00:30:00Z,27.3383,-97.1000,-2.0,21.43,11111222 
TABS,ioos:station:TABS:E:1,1995-11-12T01:00:00Z,27.3383,-97.1000,-2.0,21.4,11111222 
TABS,ioos:station:TABS:E:1,1995-11-12T01:30:00Z,27.3383,-97.1000,-2.0,21.4,11111222 
TABS,ioos:station:TABS:E:1,1995-11-12T02:00:00Z,27.3383,-97.1000,-2.0,21.34,11111222 
TABS,ioos:station:TABS:E:1,1995-11-12T02:30:00Z,27.3383,-97.1000,-2.0,21.37,11111222 
TABS,ioos:station:TABS:E:1,1995-11-12T03:00:00Z,27.3383,-97.1000,-2.0,21.38,11111222 
TABS,ioos:station:TABS:E:1,1995-11-12T03:30:00Z,27.3383,-97.1000,-2.0,21.37,11111222 
TABS,ioos:station:TABS:E:1,1995-11-12T04:00:00Z,27.3383,-97.1000,-2.0,21.35,11111222 
TABS,ioos:station:TABS:E:1,1995-11-12T04:30:00Z,27.3383,-97.1000,-2.0,21.25,11111222 
TABS,ioos:station:TABS:E:1,1995-11-12T05:00:00Z,27.3383,-97.1000,-2.0,21.23,11111222 
TABS,ioos:station:TABS:E:1,1995-11-12T05:30:00Z,27.3383,-97.1000,-2.0,21.22,11111222 
TABS,ioos:station:TABS:E:1,1995-11-12T06:00:00Z,27.3383,-97.1000,-2.0,21.26,11111222 
TABS,ioos:station:TABS:E:1,1995-11-12T06:30:00Z,27.3383,-97.1000,-2.0,21.25,11111222 
TABS,ioos:station:TABS:E:1,1995-11-12T07:00:00Z,27.3383,-97.1000,-2.0,21.25,11111222 
TABS,ioos:station:TABS:E:1,1995-11-12T07:30:00Z,27.3383,-97.1000,-2.0,21.23,11111222 
TABS,ioos:station:TABS:E:1,1995-11-12T08:00:00Z,27.3383,-97.1000,-2.0,21.24,11111222 
TABS,ioos:station:TABS:E:1,1995-11-12T08:30:00Z,27.3383,-97.1000,-2.0,21.24,11111222 
TABS,ioos:station:TABS:E:1,1995-11-12T09:00:00Z,27.3383,-97.1000,-2.0,21.27,11111222 
TABS,ioos:station:TABS:E:1,1995-11-12T09:30:00Z,27.3383,-97.1000,-2.0,21.23,11111222 
TABS,ioos:station:TABS:E:1,1995-11-12T10:00:00Z,27.3383,-97.1000,-2.0,21.2,11111222 
TABS,ioos:station:TABS:E:1,1995-11-12T10:30:00Z,27.3383,-97.1000,-2.0,21.18,11111222 
TABS,ioos:station:TABS:E:1,1995-11-12T11:00:00Z,27.3383,-97.1000,-2.0,21.2,11111222 
TABS,ioos:station:TABS:E:1,1995-11-12T11:30:00Z,27.3383,-97.1000,-2.0,21.21,11111222 
TABS,ioos:station:TABS:E:1,1995-11-12T12:00:00Z,27.3383,-97.1000,-2.0,21.24,11111222 
TABS,ioos:station:TABS:E:1,1995-11-12T12:30:00Z,27.3383,-97.1000,-2.0,21.3,11111222 
TABS,ioos:station:TABS:E:1,1995-11-12T13:00:00Z,27.3383,-97.1000,-2.0,21.35,11111222 
TABS,ioos:station:TABS:E:1,1995-11-12T13:30:00Z,27.3383,-97.1000,-2.0,21.24,11111222 
TABS,ioos:station:TABS:E:1,1995-11-12T14:00:00Z,27.3383,-97.1000,-2.0,21.05,11111222 
TABS,ioos:station:TABS:E:1,1995-11-12T14:30:00Z,27.3383,-97.1000,-2.0,21.05,11111222 
TABS,ioos:station:TABS:E:1,1995-11-12T15:00:00Z,27.3383,-97.1000,-2.0,21.01,11111222 
TABS,ioos:station:TABS:E:1,1995-11-12T15:30:00Z,27.3383,-97.1000,-2.0,20.98,11111222 
TABS,ioos:station:TABS:E:1,1995-11-12T16:00:00Z,27.3383,-97.1000,-2.0,21.03,11111222 
TABS,ioos:station:TABS:E:1,1995-11-12T16:30:00Z,27.3383,-97.1000,-2.0,21.07,11111222 
TABS,ioos:station:TABS:E:1,1995-11-12T17:00:00Z,27.3383,-97.1000,-2.0,21.03,11111222 
TABS,ioos:station:TABS:E:1,1995-11-12T17:30:00Z,27.3383,-97.1000,-2.0,21.07,11111222 
TABS,ioos:station:TABS:E:1,1995-11-12T18:00:00Z,27.3383,-97.1000,-2.0,21.13,11111222 
TABS,ioos:station:TABS:E:1,1995-11-12T18:30:00Z,27.3383,-97.1000,-2.0,21.22,11111222 
TABS,ioos:station:TABS:E:1,1995-11-12T19:00:00Z,27.3383,-97.1000,-2.0,21.1,11111222 
TABS,ioos:station:TABS:E:1,1995-11-12T19:30:00Z,27.3383,-97.1000,-2.0,21.2,11111222 
TABS,ioos:station:TABS:E:1,1995-11-12T20:00:00Z,27.3383,-97.1000,-2.0,21.22,11111222 
TABS,ioos:station:TABS:E:1,1995-11-12T20:30:00Z,27.3383,-97.1000,-2.0,21.2,11111222 
TABS,ioos:station:TABS:E:1,1995-11-12T21:00:00Z,27.3383,-97.1000,-2.0,21.19,11111222 
TABS,ioos:station:TABS:E:1,1995-11-12T21:30:00Z,27.3383,-97.1000,-2.0,21.16,11111222 
TABS,ioos:station:TABS:E:1,1995-11-12T22:00:00Z,27.3383,-97.1000,-2.0,21.13,11111222 
TABS,ioos:station:TABS:E:1,1995-11-12T22:30:00Z,27.3383,-97.1000,-2.0,21.08,11111222 
TABS,ioos:station:TABS:E:1,1995-11-12T23:00:00Z,27.3383,-97.1000,-2.0,21.06,11111222 
TABS,ioos:station:TABS:E:1,1995-11-12T23:30:00Z,27.3383,-97.1000,-2.0,21.02,11111222 
TABS,ioos:station:TABS:E:1,1995-11-13T00:00:00Z,27.3383,-97.1000,-2.0,20.99,11111222 
TABS,ioos:station:TABS:E:1,1995-11-13T00:30:00Z,27.3383,-97.1000,-2.0,21.0,11111222 
TABS,ioos:station:TABS:E:1,1995-11-13T01:00:00Z,27.3383,-97.1000,-2.0,21.0,11111222 
TABS,ioos:station:TABS:E:1,1995-11-13T01:30:00Z,27.3383,-97.1000,-2.0,20.94,11111222 
TABS,ioos:station:TABS:E:1,1995-11-13T02:00:00Z,27.3383,-97.1000,-2.0,20.9,11111222 
TABS,ioos:station:TABS:E:1,1995-11-13T02:30:00Z,27.3383,-97.1000,-2.0,20.89,11111222 
TABS,ioos:station:TABS:E:1,1995-11-13T03:00:00Z,27.3383,-97.1000,-2.0,20.85,11111222 
TABS,ioos:station:TABS:E:1,1995-11-13T03:30:00Z,27.3383,-97.1000,-2.0,20.87,11111222 
TABS,ioos:station:TABS:E:1,1995-11-13T04:00:00Z,27.3383,-97.1000,-2.0,20.86,11111222 
TABS,ioos:station:TABS:E:1,1995-11-13T04:30:00Z,27.3383,-97.1000,-2.0,20.84,11111222 
TABS,ioos:station:TABS:E:1,1995-11-13T05:00:00Z,27.3383,-97.1000,-2.0,20.86,11111222 
TABS,ioos:station:TABS:E:1,1995-11-13T05:30:00Z,27.3383,-97.1000,-2.0,20.83,11111222 
TABS,ioos:station:TABS:E:1,1995-11-13T06:00:00Z,27.3383,-97.1000,-2.0,20.8,11111222 
TABS,ioos:station:TABS:E:1,1995-11-13T06:30:00Z,27.3383,-97.1000,-2.0,20.83,11111222 
TABS,ioos:station:TABS:E:1,1995-11-13T07:00:00Z,27.3383,-97.1000,-2.0,20.84,11111222 
TABS,ioos:station:TABS:E:1,1995-11-13T07:30:00Z,27.3383,-97.1000,-2.0,20.83,11111222 
TABS,ioos:station:TABS:E:1,1995-11-13T08:00:00Z,27.3383,-97.1000,-2.0,20.82,11111222 
TABS,ioos:station:TABS:E:1,1995-11-13T08:30:00Z,27.3383,-97.1000,-2.0,20.79,11111222 
TABS,ioos:station:TABS:E:1,1995-11-13T09:00:00Z,27.3383,-97.1000,-2.0,20.76,11111222 
TABS,ioos:station:TABS:E:1,1995-11-13T09:30:00Z,27.3383,-97.1000,-2.0,20.78,11111222 
TABS,ioos:station:TABS:E:1,1995-11-13T10:00:00Z,27.3383,-97.1000,-2.0,20.77,11111222 
TABS,ioos:station:TABS:E:1,1995-11-13T10:30:00Z,27.3383,-97.1000,-2.0,20.8,11111222 
TABS,ioos:station:TABS:E:1,1995-11-13T11:00:00Z,27.3383,-97.1000,-2.0,20.83,11111222 
TABS,ioos:station:TABS:E:1,1995-11-13T11:30:00Z,27.3383,-97.1000,-2.0,20.82,11111222 
TABS,ioos:station:TABS:E:1,1995-11-13T12:00:00Z,27.3383,-97.1000,-2.0,20.8,11111222 
TABS,ioos:station:TABS:E:1,1995-11-13T12:30:00Z,27.3383,-97.1000,-2.0,20.77,11111222 
TABS,ioos:station:TABS:E:1,1995-11-13T13:00:00Z,27.3383,-97.1000,-2.0,20.74,11111222 
TABS,ioos:station:TABS:E:1,1995-11-13T13:30:00Z,27.3383,-97.1000,-2.0,20.73,11111222 
TABS,ioos:station:TABS:E:1,1995-11-13T14:00:00Z,27.3383,-97.1000,-2.0,20.72,11111222 
TABS,ioos:station:TABS:E:1,1995-11-13T14:30:00Z,27.3383,-97.1000,-2.0,20.73,11111222 
TABS,ioos:station:TABS:E:1,1995-11-13T15:00:00Z,27.3383,-97.1000,-2.0,20.72,11111222 
TABS,ioos:station:TABS:E:1,1995-11-13T15:30:00Z,27.3383,-97.1000,-2.0,20.71,11111222 
TABS,ioos:station:TABS:E:1,1995-11-13T16:00:00Z,27.3383,-97.1000,-2.0,20.73,11111222 
TABS,ioos:station:TABS:E:1,1995-11-13T16:30:00Z,27.3383,-97.1000,-2.0,20.78,11111222 
TABS,ioos:station:TABS:E:1,1995-11-13T17:00:00Z,27.3383,-97.1000,-2.0,20.82,11111222 
TABS,ioos:station:TABS:E:1,1995-11-13T17:30:00Z,27.3383,-97.1000,-2.0,20.89,11111222 
TABS,ioos:station:TABS:E:1,1995-11-13T18:00:00Z,27.3383,-97.1000,-2.0,20.96,11111222 
TABS,ioos:station:TABS:E:1,1995-11-13T18:30:00Z,27.3383,-97.1000,-2.0,21.04,11111222 
TABS,ioos:station:TABS:E:1,1995-11-13T19:00:00Z,27.3383,-97.1000,-2.0,21.18,11111222 
TABS,ioos:station:TABS:E:1,1995-11-13T19:30:00Z,27.3383,-97.1000,-2.0,21.31,11111222 
TABS,ioos:station:TABS:E:1,1995-11-13T20:00:00Z,27.3383,-97.1000,-2.0,21.33,11111222 
TABS,ioos:station:TABS:E:1,1995-11-13T20:30:00Z,27.3383,-97.1000,-2.0,21.33,11111222 
TABS,ioos:station:TABS:E:1,1995-11-13T21:00:00Z,27.3383,-97.1000,-2.0,21.26,11111222 
TABS,ioos:station:TABS:E:1,1995-11-13T21:30:00Z,27.3383,-97.1000,-2.0,21.29,11111222 
TABS,ioos:station:TABS:E:1,1995-11-13T22:00:00Z,27.3383,-97.1000,-2.0,21.31,11111222 
TABS,ioos:station:TABS:E:1,1995-11-13T22:30:00Z,27.3383,-97.1000,-2.0,21.3,11111222 
TABS,ioos:station:TABS:E:1,1995-11-13T23:00:00Z,27.3383,-97.1000,-2.0,21.29,11111222 
TABS,ioos:station:TABS:E:1,1995-11-13T23:30:00Z,27.3383,-97.1000,-2.0,21.29,11111222 
TABS,ioos:station:TABS:E:1,1995-11-14T00:00:00Z,27.3383,-97.1000,-2.0,21.28,11111222 
TABS,ioos:station:TABS:E:1,1995-11-14T00:30:00Z,27.3383,-97.1000,-2.0,21.22,11111222 
TABS,ioos:station:TABS:E:1,1995-11-14T01:00:00Z,27.3383,-97.1000,-2.0,20.99,11111222 
TABS,ioos:station:TABS:E:1,1995-11-14T01:30:00Z,27.3383,-97.1000,-2.0,20.97,11111222 
TABS,ioos:station:TABS:E:1,1995-11-14T02:00:00Z,27.3383,-97.1000,-2.0,20.89,11111222 
TABS,ioos:station:TABS:E:1,1995-11-14T02:30:00Z,27.3383,-97.1000,-2.0,20.81,11111222 
TABS,ioos:station:TABS:E:1,1995-11-14T03:00:00Z,27.3383,-97.1000,-2.0,20.81,11111222 
TABS,ioos:station:TABS:E:1,1995-11-14T03:30:00Z,27.3383,-97.1000,-2.0,20.8,11111222 
TABS,ioos:station:TABS:E:1,1995-11-14T04:00:00Z,27.3383,-97.1000,-2.0,20.75,11111222 
TABS,ioos:station:TABS:E:1,1995-11-14T04:30:00Z,27.3383,-97.1000,-2.0,20.73,11111222 
TABS,ioos:station:TABS:E:1,1995-11-14T05:00:00Z,27.3383,-97.1000,-2.0,20.71,11111222 
TABS,ioos:station:TABS:E:1,1995-11-14T05:30:00Z,27.3383,-97.1000,-2.0,20.68,11111222 
TABS,ioos:station:TABS:E:1,1995-11-14T06:00:00Z,27.3383,-97.1000,-2.0,20.66,11111222 
TABS,ioos:station:TABS:E:1,1995-11-14T06:30:00Z,27.3383,-97.1000,-2.0,20.62,11111222 
TABS,ioos:station:TABS:E:1,1995-11-14T07:00:00Z,27.3383,-97.1000,-2.0,20.57,11111222 
TABS,ioos:station:TABS:E:1,1995-11-14T07:30:00Z,27.3383,-97.1000,-2.0,20.56,11111222 
TABS,ioos:station:TABS:E:1,1995-11-14T08:00:00Z,27.3383,-97.1000,-2.0,20.56,11111222 
TABS,ioos:station:TABS:E:1,1995-11-14T08:30:00Z,27.3383,-97.1000,-2.0,20.55,11111222 
TABS,ioos:station:TABS:E:1,1995-11-14T09:00:00Z,27.3383,-97.1000,-2.0,20.55,11111222 
TABS,ioos:station:TABS:E:1,1995-11-14T09:30:00Z,27.3383,-97.1000,-2.0,20.56,11111222 
TABS,ioos:station:TABS:E:1,1995-11-14T10:00:00Z,27.3383,-97.1000,-2.0,20.56,11111222 
TABS,ioos:station:TABS:E:1,1995-11-14T10:30:00Z,27.3383,-97.1000,-2.0,20.55,11111222 
TABS,ioos:station:TABS:E:1,1995-11-14T11:00:00Z,27.3383,-97.1000,-2.0,20.56,11111222 
TABS,ioos:station:TABS:E:1,1995-11-14T11:30:00Z,27.3383,-97.1000,-2.0,20.55,11111222 
TABS,ioos:station:TABS:E:1,1995-11-14T12:00:00Z,27.3383,-97.1000,-2.0,20.55,11111222 
TABS,ioos:station:TABS:E:1,1995-11-14T12:30:00Z,27.3383,-97.1000,-2.0,20.54,11111222 
TABS,ioos:station:TABS:E:1,1995-11-14T13:00:00Z,27.3383,-97.1000,-2.0,20.56,11111222 
TABS,ioos:station:TABS:E:1,1995-11-14T13:30:00Z,27.3383,-97.1000,-2.0,20.6,11111222 
TABS,ioos:station:TABS:E:1,1995-11-14T14:00:00Z,27.3383,-97.1000,-2.0,20.64,11111222 
TABS,ioos:station:TABS:E:1,1995-11-14T14:30:00Z,27.3383,-97.1000,-2.0,20.66,11111222 
TABS,ioos:station:TABS:E:1,1995-11-14T15:00:00Z,27.3383,-97.1000,-2.0,20.7,11111222 
TABS,ioos:station:TABS:E:1,1995-11-14T15:30:00Z,27.3383,-97.1000,-2.0,20.77,11111222 
TABS,ioos:station:TABS:E:1,1995-11-14T16:00:00Z,27.3383,-97.1000,-2.0,20.84,11111222 
TABS,ioos:station:TABS:E:1,1995-11-14T16:30:00Z,27.3383,-97.1000,-2.0,20.93,11111222 
TABS,ioos:station:TABS:E:1,1995-11-14T17:00:00Z,27.3383,-97.1000,-2.0,20.99,11111222 
TABS,ioos:station:TABS:E:1,1995-11-14T17:30:00Z,27.3383,-97.1000,-2.0,21.07,11111222 
TABS,ioos:station:TABS:E:1,1995-11-14T18:00:00Z,27.3383,-97.1000,-2.0,21.14,11111222 
TABS,ioos:station:TABS:E:1,1995-11-14T18:30:00Z,27.3383,-97.1000,-2.0,21.19,11111222 
TABS,ioos:station:TABS:E:1,1995-11-14T19:00:00Z,27.3383,-97.1000,-2.0,21.23,11111222 
TABS,ioos:station:TABS:E:1,1995-11-14T19:30:00Z,27.3383,-97.1000,-2.0,21.25,11111222 
TABS,ioos:station:TABS:E:1,1995-11-14T20:00:00Z,27.3383,-97.1000,-2.0,21.32,11111222 
TABS,ioos:station:TABS:E:1,1995-11-14T20:30:00Z,27.3383,-97.1000,-2.0,21.4,11111222 
TABS,ioos:station:TABS:E:1,1995-11-14T21:00:00Z,27.3383,-97.1000,-2.0,21.4,11111222 
TABS,ioos:station:TABS:E:1,1995-11-14T21:30:00Z,27.3383,-97.1000,-2.0,21.47,11111222 
TABS,ioos:station:TABS:E:1,1995-11-14T22:00:00Z,27.3383,-97.1000,-2.0,21.43,11111222 
TABS,ioos:station:TABS:E:1,1995-11-14T22:30:00Z,27.3383,-97.1000,-2.0,21.38,11111222 
TABS,ioos:station:TABS:E:1,1995-11-14T23:00:00Z,27.3383,-97.1000,-2.0,21.34,11111222 
TABS,ioos:station:TABS:E:1,1995-11-14T23:30:00Z,27.3383,-97.1000,-2.0,21.32,11111222 
TABS,ioos:station:TABS:E:1,1995-11-15T00:00:00Z,27.3383,-97.1000,-2.0,21.28,11111222 
TABS,ioos:station:TABS:E:1,1995-11-15T00:30:00Z,27.3383,-97.1000,-2.0,21.27,11111222 
TABS,ioos:station:TABS:E:1,1995-11-15T01:00:00Z,27.3383,-97.1000,-2.0,21.21,11111222 
TABS,ioos:station:TABS:E:1,1995-11-15T01:30:00Z,27.3383,-97.1000,-2.0,21.18,11111222 
TABS,ioos:station:TABS:E:1,1995-11-15T02:00:00Z,27.3383,-97.1000,-2.0,21.09,11111222 
TABS,ioos:station:TABS:E:1,1995-11-15T02:30:00Z,27.3383,-97.1000,-2.0,21.06,11111222 
TABS,ioos:station:TABS:E:1,1995-11-15T03:00:00Z,27.3383,-97.1000,-2.0,21.08,11111222 
TABS,ioos:station:TABS:E:1,1995-11-15T03:30:00Z,27.3383,-97.1000,-2.0,21.08,11111222 
TABS,ioos:station:TABS:E:1,1995-11-15T04:00:00Z,27.3383,-97.1000,-2.0,21.04,11111222 
TABS,ioos:station:TABS:E:1,1995-11-15T04:30:00Z,27.3383,-97.1000,-2.0,21.01,11111222 
TABS,ioos:station:TABS:E:1,1995-11-15T05:00:00Z,27.3383,-97.1000,-2.0,20.99,11111222 
TABS,ioos:station:TABS:E:1,1995-11-15T05:30:00Z,27.3383,-97.1000,-2.0,20.97,11111222 
TABS,ioos:station:TABS:E:1,1995-11-15T06:00:00Z,27.3383,-97.1000,-2.0,20.91,11111222 
TABS,ioos:station:TABS:E:1,1995-11-15T06:30:00Z,27.3383,-97.1000,-2.0,20.91,11111222 
TABS,ioos:station:TABS:E:1,1995-11-15T07:00:00Z,27.3383,-97.1000,-2.0,20.91,11111222 
TABS,ioos:station:TABS:E:1,1995-11-15T07:30:00Z,27.3383,-97.1000,-2.0,20.88,11111222 
TABS,ioos:station:TABS:E:1,1995-11-15T08:00:00Z,27.3383,-97.1000,-2.0,20.82,11111222 
TABS,ioos:station:TABS:E:1,1995-11-15T08:30:00Z,27.3383,-97.1000,-2.0,20.79,11111222 
TABS,ioos:station:TABS:E:1,1995-11-15T09:00:00Z,27.3383,-97.1000,-2.0,20.72,11111222 
TABS,ioos:station:TABS:E:1,1995-11-15T09:30:00Z,27.3383,-97.1000,-2.0,20.74,11111222 
TABS,ioos:station:TABS:E:1,1995-11-15T10:00:00Z,27.3383,-97.1000,-2.0,20.75,11111222 
TABS,ioos:station:TABS:E:1,1995-11-15T10:30:00Z,27.3383,-97.1000,-2.0,20.74,11111222 
TABS,ioos:station:TABS:E:1,1995-11-15T11:00:00Z,27.3383,-97.1000,-2.0,20.74,11111222 
TABS,ioos:station:TABS:E:1,1995-11-15T11:30:00Z,27.3383,-97.1000,-2.0,20.76,11111222 
TABS,ioos:station:TABS:E:1,1995-11-15T12:00:00Z,27.3383,-97.1000,-2.0,20.8,11111222 
TABS,ioos:station:TABS:E:1,1995-11-15T12:30:00Z,27.3383,-97.1000,-2.0,20.81,11111222 
TABS,ioos:station:TABS:E:1,1995-11-15T13:00:00Z,27.3383,-97.1000,-2.0,20.8,11111222 